Flag for U.S.A. Weather past 2 weeks in Warren, Michigan, U.S.A.

Now
16 °F

Passing clouds.


Feels Like: 1 °F
Forecast: 11 / 23 °F
Wind: 15 mph from North

Location: Detroit City Airport

Current Time: Jan 30, 2015 at 10:35:51 AM

Latest Report: Jan 30, 2015 at 9:53 AM


Visibility: 10 mi

Pressure: 30.45 "Hg

Humidity: 53%

Dew point: 2 °F

Location of WarrenLocation

Historic Weather in Warren — Graph

°F

Warren temperature yesterday

Maximum temperature yesterday: 37 °F (at 12:53 PM)
Minimum temperature yesterday: 27 °F (at 12:53 AM)
Average temperature yesterday: 32 °F

Past Weeks' High & Low Weather Summary

 TemperatureHumidityPressure
High44 °F (Jan 17, 11:53 PM)86% (Jan 18, 10:53 AM)30.93 "Hg (Jan 18, 10:53 AM)
Low11 °F (Jan 26, 6:53 AM)45% (Jan 26, 3:53 PM)28.07 "Hg (Jan 28, 7:53 PM)
Average28 °F68%30.01 "Hg
* Reported Jan 15 8:53 AM — Jan 30 8:53 AM, Warren, Weather by CustomWeather, © 2014

Note: Actual official high and low records may vary slightly from our data, if they occured in-between our weather recording intervals... More about our weather records

Advertising

Warren weather history for previous 24 hours

 ConditionsComfort  
Time TempWeatherWind HumidityBarometerVisibility
8:53 AM
Jan 30
16 °FPassing clouds.15 mph53%30.42 "Hg10 mi
7:53 AM16 °FOvercast.13 mph59%30.39 "Hg10 mi
6:53 AM18 °FPassing clouds.22 mph59%30.33 "Hg10 mi
5:53 AM20 °FOvercast.14 mph60%30.28 "Hg10 mi
5:00 AM21 °FOvercast.17 mph60%30.21 "Hg10 mi
3:53 AM23 °FMostly cloudy.17 mph63%30.19 "Hg10 mi
2:53 AM25 °FMostly cloudy.17 mph60%30.16 "Hg10 mi
1:53 AM26 °FOvercast.13 mph63%30.12 "Hg10 mi
12:53 AM29 °FOvercast.14 mph64%30.10 "Hg10 mi
11:53 PM
Jan 29
31 °FOvercast.15 mph59%30.07 "Hg10 mi
10:53 PM32 °FOvercast.15 mph61%30.04 "Hg10 mi
9:53 PM33 °FMostly cloudy.14 mph66%30.01 "Hg10 mi
8:53 PM34 °FMostly cloudy.13 mph76%29.98 "Hg10 mi
7:53 PM34 °FOvercast.9 mph73%29.96 "Hg8 mi
6:53 PM33 °FMostly cloudy.8 mph78%29.93 "Hg7 mi
5:53 PM33 °FMostly cloudy.10 mph78%29.88 "Hg5 mi
4:53 PM33 °FLight snow. More clouds than sun.8 mph82%29.83 "Hg1 mi
4:01 PM33 °FSnow. Fog.9 mph85%29.77 "Hg1 mi
2:58 PM35 °FLight snow. Overcast.7 mph72%29.72 "Hg2 mi
1:53 PM36 °FOvercast.5 mph67%29.73 "Hg10 mi
12:53 PM37 °FOvercast.5 mph67%29.73 "Hg10 mi
11:53 AM36 °FOvercast.8 mph67%29.75 "Hg10 mi
10:53 AM34 °FOvercast.7 mph67%29.77 "Hg10 mi
Weather by CustomWeather, © 2014

See weather overviewHow to use our weather pages